Zurück zum Katalog

COSMOS 943

AktivMilitärLEO
NORAD 10289·PAYLOAD·🇷🇺 Russia

Gestartet Aug 24, 1977 von Plesetsk Cosmodrome

Loading…

Nächste Überflüge (nächste 24 Stunden)

TLE

AktuellSource: Space-Track

Epoche: Sep 14, 2026, 14:25 UTC

1 10289U 77079E   26257.60110332 -.00000007  00000-0  55239-4 0  9994
2 10289  74.0221 111.0548 0007154  69.6765 318.6359 12.52100112216979

Verfolge COSMOS 943 in Echtzeit mit AllMySat

Download on the App Store